Tracking 22223 objects as of 26-Jan-2021
HD Live streaming from Space Station
objects crossing your sky now

IRIDIUM 69

Track IRIDIUM 69 now!
10-day predictions
IRIDIUM 69 is classified as:


NORAD ID: 25319
Int'l Code: 1998-026A
Perigee: 769.0 km
Apogee: 769.6 km
Inclination: 86.4 °
Period: 100.1 minutes
Semi major axis: 7140 km
RCS: 4.3416 m2 (large)
Launch date: May 2, 1998
Source: United States (US)
Launch site: Taiyaun Space Center, China (TSC)
aabbcc
Your satellite tracking list
Your tracking list is empty




NASA's NSSDC Master Catalog

Two Line Element Set (TLE):
1 25319U 98026A   21026.14687992  .00000145  00000-0  40807-4 0  9995
2 25319  86.3965  50.7905 0000432 167.8402 192.2807 14.38888112192681
Source of the keplerian elements: AFSPC